#datetime,building,power
2023-08-11T00:00:00,sdl,13.48
2023-08-11T00:01:00,sdl,11.05
2023-08-11T00:02:00,sdl,12.25
2023-08-11T00:03:00,sdl,12.55
2023-08-11T00:04:00,sdl,5.22
2023-08-11T00:05:00,sdl,5.23
2023-08-11T00:06:00,sdl,7.02
2023-08-11T00:07:00,sdl,7.21
2023-08-11T00:08:00,sdl,7.88
2023-08-11T00:09:00,sdl,7.71
2023-08-11T00:10:00,sdl,8.11
2023-08-11T00:11:00,sdl,8.37
2023-08-11T00:12:00,sdl,10.49
2023-08-11T00:13:00,sdl,10.46
2023-08-11T00:14:00,sdl,10.56
2023-08-11T00:15:00,sdl,10.55
2023-08-11T00:16:00,sdl,10.67
2023-08-11T00:17:00,sdl,9.77
2023-08-11T00:18:00,sdl,9.83
2023-08-11T00:19:00,sdl,10.11
2023-08-11T00:20:00,sdl,10.00
2023-08-11T00:21:00,sdl,9.99
2023-08-11T00:22:00,sdl,11.45
2023-08-11T00:23:00,sdl,5.85
2023-08-11T00:24:00,sdl,6.67
2023-08-11T00:25:00,sdl,6.81
2023-08-11T00:26:00,sdl,6.83
2023-08-11T00:27:00,sdl,6.85
2023-08-11T00:28:00,sdl,4.81
2023-08-11T00:29:00,sdl,6.40
2023-08-11T00:30:00,sdl,6.98
2023-08-11T00:31:00,sdl,7.61
2023-08-11T00:32:00,sdl,7.70
2023-08-11T00:33:00,sdl,7.64
2023-08-11T00:34:00,sdl,7.54
2023-08-11T00:35:00,sdl,7.29
2023-08-11T00:36:00,sdl,7.26
2023-08-11T00:37:00,sdl,7.13
2023-08-11T00:38:00,sdl,7.12
2023-08-11T00:39:00,sdl,7.13
2023-08-11T00:40:00,sdl,7.12
2023-08-11T00:41:00,sdl,9.83
2023-08-11T00:42:00,sdl,11.00
2023-08-11T00:43:00,sdl,11.70
2023-08-11T00:44:00,sdl,12.63
2023-08-11T00:45:00,sdl,12.87
2023-08-11T00:46:00,sdl,13.07
2023-08-11T00:47:00,sdl,12.87
2023-08-11T00:48:00,sdl,12.60
2023-08-11T00:49:00,sdl,11.38
2023-08-11T00:50:00,sdl,11.19
2023-08-11T00:51:00,sdl,12.07
2023-08-11T00:52:00,sdl,11.61
2023-08-11T00:53:00,sdl,11.77
2023-08-11T00:54:00,sdl,13.90
2023-08-11T00:55:00,sdl,14.05
2023-08-11T00:56:00,sdl,13.91
2023-08-11T00:57:00,sdl,13.98
2023-08-11T00:58:00,sdl,14.14
2023-08-11T00:59:00,sdl,14.93
2023-08-11T01:00:00,sdl,14.62
2023-08-11T01:01:00,sdl,14.86
2023-08-11T01:02:00,sdl,14.93
2023-08-11T01:03:00,sdl,13.52
2023-08-11T01:04:00,sdl,13.87
2023-08-11T01:05:00,sdl,14.44
2023-08-11T01:06:00,sdl,14.83
2023-08-11T01:07:00,sdl,14.89
2023-08-11T01:08:00,sdl,15.26
2023-08-11T01:09:00,sdl,15.44
2023-08-11T01:10:00,sdl,12.13
2023-08-11T01:11:00,sdl,13.17
2023-08-11T01:12:00,sdl,13.77
2023-08-11T01:13:00,sdl,13.69
2023-08-11T01:14:00,sdl,7.95
2023-08-11T01:15:00,sdl,7.96
2023-08-11T01:16:00,sdl,7.87
2023-08-11T01:17:00,sdl,7.84
2023-08-11T01:18:00,sdl,7.90
2023-08-11T01:19:00,sdl,8.11
2023-08-11T01:20:00,sdl,8.12
2023-08-11T01:21:00,sdl,7.97
2023-08-11T01:22:00,sdl,8.08
2023-08-11T01:23:00,sdl,8.10
2023-08-11T01:24:00,sdl,7.01
2023-08-11T01:25:00,sdl,5.48
2023-08-11T01:26:00,sdl,7.65
2023-08-11T01:27:00,sdl,8.27
2023-08-11T01:28:00,sdl,7.69
2023-08-11T01:29:00,sdl,7.74
2023-08-11T01:30:00,sdl,9.02
2023-08-11T01:31:00,sdl,8.90
2023-08-11T01:32:00,sdl,8.40
2023-08-11T01:33:00,sdl,6.47
2023-08-11T01:34:00,sdl,6.53
2023-08-11T01:35:00,sdl,6.62
2023-08-11T01:36:00,sdl,6.54
2023-08-11T01:37:00,sdl,4.67
2023-08-11T01:38:00,sdl,4.64
2023-08-11T01:39:00,sdl,4.65
2023-08-11T01:40:00,sdl,4.91
2023-08-11T01:41:00,sdl,4.53
2023-08-11T01:42:00,sdl,3.39
2023-08-11T01:43:00,sdl,2.50
2023-08-11T01:44:00,sdl,2.71
2023-08-11T01:45:00,sdl,2.50
2023-08-11T01:46:00,sdl,1.92
2023-08-11T01:47:00,sdl,1.84
2023-08-11T01:48:00,sdl,1.78
2023-08-11T01:49:00,sdl,2.95
2023-08-11T01:50:00,sdl,3.14
2023-08-11T01:51:00,sdl,2.89
2023-08-11T01:52:00,sdl,3.04
2023-08-11T01:53:00,sdl,3.16
2023-08-11T01:54:00,sdl,3.11
2023-08-11T01:55:00,sdl,3.26
2023-08-11T01:56:00,sdl,3.38
2023-08-11T01:57:00,sdl,3.21
2023-08-11T01:58:00,sdl,5.54
2023-08-11T01:59:00,sdl,6.03
2023-08-11T02:00:00,sdl,5.64
2023-08-11T02:01:00,sdl,5.38
2023-08-11T02:02:00,sdl,5.69
2023-08-11T02:03:00,sdl,6.14
2023-08-11T02:04:00,sdl,6.47
2023-08-11T02:05:00,sdl,6.72
2023-08-11T02:06:00,sdl,11.18
2023-08-11T02:07:00,sdl,11.02
2023-08-11T02:08:00,sdl,11.24
2023-08-11T02:09:00,sdl,12.42
2023-08-11T02:10:00,sdl,12.32
2023-08-11T02:11:00,sdl,12.82
2023-08-11T02:12:00,sdl,12.96
2023-08-11T02:13:00,sdl,13.09
2023-08-11T02:14:00,sdl,13.00
2023-08-11T02:15:00,sdl,13.26
2023-08-11T02:16:00,sdl,11.59
2023-08-11T02:17:00,sdl,11.37
2023-08-11T02:18:00,sdl,11.75
2023-08-11T02:19:00,sdl,10.76
2023-08-11T02:20:00,sdl,10.66
2023-08-11T02:21:00,sdl,11.01
2023-08-11T02:22:00,sdl,11.02
2023-08-11T02:23:00,sdl,10.99
2023-08-11T02:24:00,sdl,11.16
2023-08-11T02:25:00,sdl,11.17
2023-08-11T02:26:00,sdl,11.71
2023-08-11T02:27:00,sdl,11.99
2023-08-11T02:28:00,sdl,12.01
2023-08-11T02:29:00,sdl,12.00
2023-08-11T02:30:00,sdl,11.97
2023-08-11T02:31:00,sdl,11.99
2023-08-11T02:32:00,sdl,12.04
2023-08-11T02:33:00,sdl,12.88
2023-08-11T02:34:00,sdl,12.02
2023-08-11T02:35:00,sdl,12.02
2023-08-11T02:36:00,sdl,12.34
2023-08-11T02:37:00,sdl,11.55
2023-08-11T02:38:00,sdl,11.61
2023-08-11T02:39:00,sdl,11.04
2023-08-11T02:40:00,sdl,11.02
2023-08-11T02:41:00,sdl,10.90
2023-08-11T02:42:00,sdl,10.95
2023-08-11T02:43:00,sdl,10.85
2023-08-11T02:44:00,sdl,10.77
2023-08-11T02:45:00,sdl,11.84
2023-08-11T02:46:00,sdl,11.56
2023-08-11T02:47:00,sdl,11.56
2023-08-11T02:48:00,sdl,11.49
2023-08-11T02:49:00,sdl,11.60
2023-08-11T02:50:00,sdl,12.38
2023-08-11T02:51:00,sdl,11.66
2023-08-11T02:52:00,sdl,13.61
2023-08-11T02:53:00,sdl,13.61
2023-08-11T02:54:00,sdl,12.85
2023-08-11T02:55:00,sdl,12.68
2023-08-11T02:56:00,sdl,12.70
2023-08-11T02:57:00,sdl,12.91
2023-08-11T02:58:00,sdl,13.02
2023-08-11T02:59:00,sdl,12.57
2023-08-11T03:00:00,sdl,12.62
2023-08-11T03:01:00,sdl,12.53
2023-08-11T03:02:00,sdl,13.23
2023-08-11T03:03:00,sdl,13.38
2023-08-11T03:04:00,sdl,13.18
2023-08-11T03:05:00,sdl,13.16
2023-08-11T03:06:00,sdl,13.62
2023-08-11T03:07:00,sdl,13.64
2023-08-11T03:08:00,sdl,11.07
2023-08-11T03:09:00,sdl,11.43
2023-08-11T03:10:00,sdl,11.31
2023-08-11T03:11:00,sdl,10.45
2023-08-11T03:12:00,sdl,10.34
2023-08-11T03:13:00,sdl,10.82
2023-08-11T03:14:00,sdl,10.47
2023-08-11T03:15:00,sdl,10.47
2023-08-11T03:16:00,sdl,10.36
2023-08-11T03:17:00,sdl,10.36
2023-08-11T03:18:00,sdl,10.93
2023-08-11T03:19:00,sdl,10.95
2023-08-11T03:20:00,sdl,11.87
2023-08-11T03:21:00,sdl,12.09
2023-08-11T03:22:00,sdl,14.10
2023-08-11T03:23:00,sdl,13.73
2023-08-11T03:24:00,sdl,13.61
2023-08-11T03:25:00,sdl,13.90
2023-08-11T03:26:00,sdl,13.70
2023-08-11T03:27:00,sdl,13.67
2023-08-11T03:28:00,sdl,13.71
2023-08-11T03:29:00,sdl,13.71
2023-08-11T03:30:00,sdl,12.91
2023-08-11T03:31:00,sdl,12.80
2023-08-11T03:32:00,sdl,12.71
2023-08-11T03:33:00,sdl,12.94
2023-08-11T03:34:00,sdl,13.03
2023-08-11T03:35:00,sdl,10.91
2023-08-11T03:36:00,sdl,10.52
2023-08-11T03:37:00,sdl,10.45
2023-08-11T03:38:00,sdl,11.32
2023-08-11T03:39:00,sdl,11.35
2023-08-11T03:40:00,sdl,11.51
2023-08-11T03:41:00,sdl,11.28
2023-08-11T03:42:00,sdl,11.38
2023-08-11T03:43:00,sdl,11.43
2023-08-11T03:44:00,sdl,11.51
2023-08-11T03:45:00,sdl,11.68
2023-08-11T03:46:00,sdl,10.57
2023-08-11T03:47:00,sdl,10.55
2023-08-11T03:48:00,sdl,10.47
2023-08-11T03:49:00,sdl,10.44
2023-08-11T03:50:00,sdl,10.52
2023-08-11T03:51:00,sdl,11.13
2023-08-11T03:52:00,sdl,11.14
2023-08-11T03:53:00,sdl,11.77
2023-08-11T03:54:00,sdl,11.28
2023-08-11T03:55:00,sdl,10.50
2023-08-11T03:56:00,sdl,11.34
2023-08-11T03:57:00,sdl,11.64
2023-08-11T03:58:00,sdl,11.65
2023-08-11T03:59:00,sdl,14.27
2023-08-11T04:00:00,sdl,13.60
2023-08-11T04:01:00,sdl,13.60
2023-08-11T04:02:00,sdl,13.97
2023-08-11T04:03:00,sdl,14.07
2023-08-11T04:04:00,sdl,12.86
2023-08-11T04:05:00,sdl,12.79
2023-08-11T04:06:00,sdl,12.85
2023-08-11T04:07:00,sdl,12.72
2023-08-11T04:08:00,sdl,12.74
2023-08-11T04:09:00,sdl,12.80
2023-08-11T04:10:00,sdl,12.84
2023-08-11T04:11:00,sdl,13.27
2023-08-11T04:12:00,sdl,13.46
2023-08-11T04:13:00,sdl,13.43
2023-08-11T04:14:00,sdl,13.47
2023-08-11T04:15:00,sdl,13.50
2023-08-11T04:16:00,sdl,13.49
2023-08-11T04:17:00,sdl,13.50
2023-08-11T04:18:00,sdl,11.58
2023-08-11T04:19:00,sdl,11.27
2023-08-11T04:20:00,sdl,10.47
2023-08-11T04:21:00,sdl,10.61
2023-08-11T04:22:00,sdl,10.42
2023-08-11T04:23:00,sdl,10.45
2023-08-11T04:24:00,sdl,10.40
2023-08-11T04:25:00,sdl,10.39
2023-08-11T04:26:00,sdl,10.29
2023-08-11T04:27:00,sdl,10.45
2023-08-11T04:28:00,sdl,10.49
2023-08-11T04:29:00,sdl,11.38
2023-08-11T04:30:00,sdl,11.78
2023-08-11T04:31:00,sdl,11.79
2023-08-11T04:32:00,sdl,11.84
2023-08-11T04:33:00,sdl,11.66
2023-08-11T04:34:00,sdl,11.63
2023-08-11T04:35:00,sdl,11.55
2023-08-11T04:36:00,sdl,11.58
2023-08-11T04:37:00,sdl,10.64
2023-08-11T04:38:00,sdl,10.71
2023-08-11T04:39:00,sdl,10.63
2023-08-11T04:40:00,sdl,12.79
2023-08-11T04:41:00,sdl,12.83
2023-08-11T04:42:00,sdl,13.51
2023-08-11T04:43:00,sdl,12.73
2023-08-11T04:44:00,sdl,12.78
2023-08-11T04:45:00,sdl,13.82
2023-08-11T04:46:00,sdl,13.83
2023-08-11T04:47:00,sdl,13.64
2023-08-11T04:48:00,sdl,13.70
2023-08-11T04:49:00,sdl,13.74
2023-08-11T04:50:00,sdl,11.57
2023-08-11T04:51:00,sdl,11.53
2023-08-11T04:52:00,sdl,11.49
2023-08-11T04:53:00,sdl,10.67
2023-08-11T04:54:00,sdl,10.57
2023-08-11T04:55:00,sdl,10.59
2023-08-11T04:56:00,sdl,10.42
2023-08-11T04:57:00,sdl,10.43
2023-08-11T04:58:00,sdl,10.49
2023-08-11T04:59:00,sdl,11.12
2023-08-11T05:00:00,sdl,10.81
2023-08-11T05:01:00,sdl,10.34
2023-08-11T05:02:00,sdl,11.32
2023-08-11T05:03:00,sdl,11.41
2023-08-11T05:04:00,sdl,11.37
2023-08-11T05:05:00,sdl,13.57
2023-08-11T05:06:00,sdl,14.22
2023-08-11T05:07:00,sdl,13.61
2023-08-11T05:08:00,sdl,13.61
2023-08-11T05:09:00,sdl,12.81
2023-08-11T05:10:00,sdl,12.90
2023-08-11T05:11:00,sdl,12.75
2023-08-11T05:12:00,sdl,12.82
2023-08-11T05:13:00,sdl,13.52
2023-08-11T05:14:00,sdl,12.80
2023-08-11T05:15:00,sdl,13.10
2023-08-11T05:16:00,sdl,12.76
2023-08-11T05:17:00,sdl,13.59
2023-08-11T05:18:00,sdl,13.58
2023-08-11T05:19:00,sdl,13.52
2023-08-11T05:20:00,sdl,13.51
2023-08-11T05:21:00,sdl,13.80
2023-08-11T05:22:00,sdl,14.11
2023-08-11T05:23:00,sdl,14.20
2023-08-11T05:24:00,sdl,14.85
2023-08-11T05:25:00,sdl,11.11
2023-08-11T05:26:00,sdl,11.34
2023-08-11T05:27:00,sdl,11.85
2023-08-11T05:28:00,sdl,11.08
2023-08-11T05:29:00,sdl,11.24
2023-08-11T05:30:00,sdl,11.19
2023-08-11T05:31:00,sdl,10.65
2023-08-11T05:32:00,sdl,10.60
2023-08-11T05:33:00,sdl,10.48
2023-08-11T05:34:00,sdl,11.45
2023-08-11T05:35:00,sdl,11.50
2023-08-11T05:36:00,sdl,11.47
2023-08-11T05:37:00,sdl,11.44
2023-08-11T05:38:00,sdl,11.54
2023-08-11T05:39:00,sdl,11.46
2023-08-11T05:40:00,sdl,11.43
2023-08-11T05:41:00,sdl,10.59
2023-08-11T05:42:00,sdl,10.48
2023-08-11T05:43:00,sdl,10.54
2023-08-11T05:44:00,sdl,11.29
2023-08-11T05:45:00,sdl,11.54
2023-08-11T05:46:00,sdl,11.43
2023-08-11T05:47:00,sdl,11.52
2023-08-11T05:48:00,sdl,11.49
2023-08-11T05:49:00,sdl,11.35
2023-08-11T05:50:00,sdl,12.35
2023-08-11T05:51:00,sdl,11.47
2023-08-11T05:52:00,sdl,11.61
2023-08-11T05:53:00,sdl,12.85
2023-08-11T05:54:00,sdl,11.85
2023-08-11T05:55:00,sdl,11.84
2023-08-11T05:56:00,sdl,11.55
2023-08-11T05:57:00,sdl,13.55
2023-08-11T05:58:00,sdl,12.85
2023-08-11T05:59:00,sdl,12.59
2023-08-11T06:00:00,sdl,13.31
2023-08-11T06:01:00,sdl,12.77
2023-08-11T06:02:00,sdl,13.37
2023-08-11T06:03:00,sdl,12.70
2023-08-11T06:04:00,sdl,12.73
2023-08-11T06:05:00,sdl,12.74
2023-08-11T06:06:00,sdl,12.62
2023-08-11T06:07:00,sdl,13.48
2023-08-11T06:08:00,sdl,13.48
2023-08-11T06:09:00,sdl,13.53
2023-08-11T06:10:00,sdl,13.28
2023-08-11T06:11:00,sdl,13.39
2023-08-11T06:12:00,sdl,13.40
2023-08-11T06:13:00,sdl,11.47
2023-08-11T06:14:00,sdl,10.34
2023-08-11T06:15:00,sdl,10.36
2023-08-11T06:16:00,sdl,10.27
2023-08-11T06:17:00,sdl,10.30
2023-08-11T06:18:00,sdl,10.22
2023-08-11T06:19:00,sdl,10.33
2023-08-11T06:20:00,sdl,11.10
2023-08-11T06:21:00,sdl,10.99
2023-08-11T06:22:00,sdl,10.81
2023-08-11T06:23:00,sdl,11.31
2023-08-11T06:24:00,sdl,11.85
2023-08-11T06:25:00,sdl,11.48
2023-08-11T06:26:00,sdl,11.33
2023-08-11T06:27:00,sdl,13.49
2023-08-11T06:28:00,sdl,13.44
2023-08-11T06:29:00,sdl,13.42
2023-08-11T06:30:00,sdl,12.61
2023-08-11T06:31:00,sdl,12.73
2023-08-11T06:32:00,sdl,12.74
2023-08-11T06:33:00,sdl,12.67
2023-08-11T06:34:00,sdl,13.05
2023-08-11T06:35:00,sdl,12.68
2023-08-11T06:36:00,sdl,12.62
2023-08-11T06:37:00,sdl,12.88
2023-08-11T06:38:00,sdl,12.85
2023-08-11T06:39:00,sdl,11.59
2023-08-11T06:40:00,sdl,11.62
2023-08-11T06:41:00,sdl,11.71
2023-08-11T06:42:00,sdl,11.96
2023-08-11T06:43:00,sdl,11.81
2023-08-11T06:44:00,sdl,11.63
2023-08-11T06:45:00,sdl,11.64
2023-08-11T06:46:00,sdl,11.36
2023-08-11T06:47:00,sdl,10.79
2023-08-11T06:48:00,sdl,11.04
2023-08-11T06:49:00,sdl,11.15
2023-08-11T06:50:00,sdl,10.64
2023-08-11T06:51:00,sdl,10.70
2023-08-11T06:52:00,sdl,11.24
2023-08-11T06:53:00,sdl,11.18
2023-08-11T06:54:00,sdl,11.29
2023-08-11T06:55:00,sdl,11.85
2023-08-11T06:56:00,sdl,12.34
2023-08-11T06:57:00,sdl,12.46
2023-08-11T06:58:00,sdl,12.38
2023-08-11T06:59:00,sdl,12.31
2023-08-11T07:00:00,sdl,11.94
2023-08-11T07:01:00,sdl,14.99
2023-08-11T07:02:00,sdl,13.02
2023-08-11T07:03:00,sdl,12.99
2023-08-11T07:04:00,sdl,12.59
2023-08-11T07:05:00,sdl,12.66
2023-08-11T07:06:00,sdl,13.21
2023-08-11T07:07:00,sdl,12.92
2023-08-11T07:08:00,sdl,12.86
2023-08-11T07:09:00,sdl,12.88
2023-08-11T07:10:00,sdl,12.92
2023-08-11T07:11:00,sdl,12.91
2023-08-11T07:12:00,sdl,13.80
2023-08-11T07:13:00,sdl,14.08
2023-08-11T07:14:00,sdl,18.64
2023-08-11T07:15:00,sdl,14.32
2023-08-11T07:16:00,sdl,14.01
2023-08-11T07:17:00,sdl,14.07
2023-08-11T07:18:00,sdl,13.49
2023-08-11T07:19:00,sdl,10.48
2023-08-11T07:20:00,sdl,10.68
2023-08-11T07:21:00,sdl,10.67
2023-08-11T07:22:00,sdl,12.08
2023-08-11T07:23:00,sdl,12.72
2023-08-11T07:24:00,sdl,12.92
2023-08-11T07:25:00,sdl,13.87
2023-08-11T07:26:00,sdl,13.08
2023-08-11T07:27:00,sdl,13.20
2023-08-11T07:28:00,sdl,13.38
2023-08-11T07:29:00,sdl,14.48
2023-08-11T07:30:00,sdl,14.15
2023-08-11T07:31:00,sdl,15.31
2023-08-11T07:32:00,sdl,14.23
2023-08-11T07:33:00,sdl,14.82
2023-08-11T07:34:00,sdl,14.20
2023-08-11T07:35:00,sdl,14.97
2023-08-11T07:36:00,sdl,14.85
2023-08-11T07:37:00,sdl,14.18
2023-08-11T07:38:00,sdl,13.37
2023-08-11T07:39:00,sdl,13.71
2023-08-11T07:40:00,sdl,13.52
2023-08-11T07:41:00,sdl,13.88
2023-08-11T07:42:00,sdl,14.48
2023-08-11T07:43:00,sdl,13.65
2023-08-11T07:44:00,sdl,13.48
2023-08-11T07:45:00,sdl,13.43
2023-08-11T07:46:00,sdl,15.65
2023-08-11T07:47:00,sdl,15.75
2023-08-11T07:48:00,sdl,15.28
2023-08-11T07:49:00,sdl,15.82
2023-08-11T07:50:00,sdl,15.74
2023-08-11T07:51:00,sdl,17.10
2023-08-11T07:52:00,sdl,16.75
2023-08-11T07:53:00,sdl,16.16
2023-08-11T07:54:00,sdl,17.66
2023-08-11T07:55:00,sdl,17.25
2023-08-11T07:56:00,sdl,17.60
2023-08-11T07:57:00,sdl,17.43
2023-08-11T07:58:00,sdl,17.16
2023-08-11T07:59:00,sdl,17.37
2023-08-11T08:00:00,sdl,17.46
2023-08-11T08:01:00,sdl,17.66
2023-08-11T08:02:00,sdl,17.42
2023-08-11T08:03:00,sdl,18.66
2023-08-11T08:04:00,sdl,18.41
2023-08-11T08:05:00,sdl,18.51
2023-08-11T08:06:00,sdl,18.42
2023-08-11T08:07:00,sdl,18.69
2023-08-11T08:08:00,sdl,18.77
2023-08-11T08:09:00,sdl,18.83
2023-08-11T08:10:00,sdl,17.77
2023-08-11T08:11:00,sdl,17.36
2023-08-11T08:12:00,sdl,17.55
2023-08-11T08:13:00,sdl,17.80
2023-08-11T08:14:00,sdl,16.81
2023-08-11T08:15:00,sdl,16.75
2023-08-11T08:16:00,sdl,16.70
2023-08-11T08:17:00,sdl,16.23
2023-08-11T08:18:00,sdl,16.14
2023-08-11T08:19:00,sdl,15.92
2023-08-11T08:20:00,sdl,15.75
2023-08-11T08:21:00,sdl,16.04
2023-08-11T08:22:00,sdl,16.73
2023-08-11T08:23:00,sdl,19.60
2023-08-11T08:24:00,sdl,18.63
2023-08-11T08:25:00,sdl,19.54
2023-08-11T08:26:00,sdl,19.48
2023-08-11T08:27:00,sdl,19.37
2023-08-11T08:28:00,sdl,19.23
2023-08-11T08:29:00,sdl,19.35
2023-08-11T08:30:00,sdl,18.84
2023-08-11T08:31:00,sdl,17.96
2023-08-11T08:32:00,sdl,18.87
2023-08-11T08:33:00,sdl,18.86
2023-08-11T08:34:00,sdl,18.25
2023-08-11T08:35:00,sdl,19.09
2023-08-11T08:36:00,sdl,19.75
2023-08-11T08:37:00,sdl,19.79
2023-08-11T08:38:00,sdl,17.89
2023-08-11T08:39:00,sdl,17.43
2023-08-11T08:40:00,sdl,17.38
2023-08-11T08:41:00,sdl,17.72
2023-08-11T08:42:00,sdl,17.59
2023-08-11T08:43:00,sdl,17.28
2023-08-11T08:44:00,sdl,17.45
2023-08-11T08:45:00,sdl,17.63
2023-08-11T08:46:00,sdl,17.64
2023-08-11T08:47:00,sdl,17.66
2023-08-11T08:48:00,sdl,17.70
2023-08-11T08:49:00,sdl,17.58
2023-08-11T08:50:00,sdl,17.49
2023-08-11T08:51:00,sdl,18.05
2023-08-11T08:52:00,sdl,17.72
2023-08-11T08:53:00,sdl,17.61
2023-08-11T08:54:00,sdl,17.63
2023-08-11T08:55:00,sdl,17.61
2023-08-11T08:56:00,sdl,17.96
2023-08-11T08:57:00,sdl,17.67
2023-08-11T08:58:00,sdl,17.62
2023-08-11T08:59:00,sdl,17.55
2023-08-11T09:00:00,sdl,20.06
2023-08-11T09:01:00,sdl,19.82
2023-08-11T09:02:00,sdl,19.70
2023-08-11T09:03:00,sdl,19.70
2023-08-11T09:04:00,sdl,19.72
2023-08-11T09:05:00,sdl,19.85
2023-08-11T09:06:00,sdl,20.16
2023-08-11T09:07:00,sdl,20.90
2023-08-11T09:08:00,sdl,20.15
2023-08-11T09:09:00,sdl,20.41
2023-08-11T09:10:00,sdl,20.26
2023-08-11T09:11:00,sdl,20.98
2023-08-11T09:12:00,sdl,20.60
2023-08-11T09:13:00,sdl,21.09
2023-08-11T09:14:00,sdl,19.99
2023-08-11T09:15:00,sdl,19.88
2023-08-11T09:16:00,sdl,19.98
2023-08-11T09:17:00,sdl,21.11
2023-08-11T09:18:00,sdl,19.73
2023-08-11T09:19:00,sdl,20.95
2023-08-11T09:20:00,sdl,21.47
2023-08-11T09:21:00,sdl,21.02
2023-08-11T09:22:00,sdl,18.97
2023-08-11T09:23:00,sdl,19.63
2023-08-11T09:24:00,sdl,19.13
2023-08-11T09:25:00,sdl,19.28
2023-08-11T09:26:00,sdl,18.64
2023-08-11T09:27:00,sdl,19.08
2023-08-11T09:28:00,sdl,18.66
2023-08-11T09:29:00,sdl,18.67
2023-08-11T09:30:00,sdl,18.86
2023-08-11T09:31:00,sdl,18.95
2023-08-11T09:32:00,sdl,24.31
2023-08-11T09:33:00,sdl,18.83
2023-08-11T09:34:00,sdl,18.82
2023-08-11T09:35:00,sdl,18.80
2023-08-11T09:36:00,sdl,19.11
2023-08-11T09:37:00,sdl,19.00
2023-08-11T09:38:00,sdl,19.37
2023-08-11T09:39:00,sdl,19.39
2023-08-11T09:40:00,sdl,18.92
2023-08-11T09:41:00,sdl,18.58
2023-08-11T09:42:00,sdl,18.44
2023-08-11T09:43:00,sdl,18.53
2023-08-11T09:44:00,sdl,18.96
2023-08-11T09:45:00,sdl,20.90
2023-08-11T09:46:00,sdl,25.33
2023-08-11T09:47:00,sdl,21.16
2023-08-11T09:48:00,sdl,21.67
2023-08-11T09:49:00,sdl,19.98
2023-08-11T09:50:00,sdl,24.69
2023-08-11T09:51:00,sdl,19.95
2023-08-11T09:52:00,sdl,20.74
2023-08-11T09:53:00,sdl,20.42
2023-08-11T09:54:00,sdl,20.01
2023-08-11T09:55:00,sdl,18.89
2023-08-11T09:56:00,sdl,20.98
2023-08-11T09:57:00,sdl,20.22
2023-08-11T09:58:00,sdl,18.70
2023-08-11T09:59:00,sdl,18.47
2023-08-11T10:00:00,sdl,18.15
2023-08-11T10:01:00,sdl,18.27
2023-08-11T10:02:00,sdl,18.01
2023-08-11T10:03:00,sdl,17.69
2023-08-11T10:04:00,sdl,18.81
2023-08-11T10:05:00,sdl,17.89
2023-08-11T10:06:00,sdl,17.92
2023-08-11T10:07:00,sdl,18.10
2023-08-11T10:08:00,sdl,17.85
2023-08-11T10:09:00,sdl,18.12
2023-08-11T10:10:00,sdl,20.02
2023-08-11T10:11:00,sdl,19.99
2023-08-11T10:12:00,sdl,20.04
2023-08-11T10:13:00,sdl,19.75
2023-08-11T10:14:00,sdl,19.89
2023-08-11T10:15:00,sdl,19.82
2023-08-11T10:16:00,sdl,19.86
2023-08-11T10:17:00,sdl,19.75
2023-08-11T10:18:00,sdl,19.07
2023-08-11T10:19:00,sdl,19.07
2023-08-11T10:20:00,sdl,19.29
2023-08-11T10:21:00,sdl,19.27
2023-08-11T10:22:00,sdl,19.28
2023-08-11T10:23:00,sdl,20.29
2023-08-11T10:24:00,sdl,20.50
2023-08-11T10:25:00,sdl,20.57
2023-08-11T10:26:00,sdl,20.15
2023-08-11T10:27:00,sdl,20.36
2023-08-11T10:28:00,sdl,20.01
2023-08-11T10:29:00,sdl,20.17
2023-08-11T10:30:00,sdl,20.10
2023-08-11T10:31:00,sdl,17.69
2023-08-11T10:32:00,sdl,18.86
2023-08-11T10:33:00,sdl,18.92
2023-08-11T10:34:00,sdl,18.88
2023-08-11T10:35:00,sdl,19.09
2023-08-11T10:36:00,sdl,20.46
2023-08-11T10:37:00,sdl,18.22
2023-08-11T10:38:00,sdl,18.16
2023-08-11T10:39:00,sdl,18.30
2023-08-11T10:40:00,sdl,18.56
2023-08-11T10:41:00,sdl,18.59
2023-08-11T10:42:00,sdl,18.66
2023-08-11T10:43:00,sdl,21.47
2023-08-11T10:44:00,sdl,19.43
2023-08-11T10:45:00,sdl,19.51
2023-08-11T10:46:00,sdl,19.61
2023-08-11T10:47:00,sdl,20.11
2023-08-11T10:48:00,sdl,19.69
2023-08-11T10:49:00,sdl,20.03
2023-08-11T10:50:00,sdl,20.34
2023-08-11T10:51:00,sdl,20.01
2023-08-11T10:52:00,sdl,20.16
2023-08-11T10:53:00,sdl,21.08
2023-08-11T10:54:00,sdl,19.92
2023-08-11T10:55:00,sdl,21.44
2023-08-11T10:56:00,sdl,21.42
2023-08-11T10:57:00,sdl,21.36
2023-08-11T10:58:00,sdl,21.73
2023-08-11T10:59:00,sdl,21.59
2023-08-11T11:00:00,sdl,23.02
2023-08-11T11:01:00,sdl,22.24
2023-08-11T11:02:00,sdl,22.20
2023-08-11T11:03:00,sdl,22.85
2023-08-11T11:04:00,sdl,24.15
2023-08-11T11:05:00,sdl,24.79
2023-08-11T11:06:00,sdl,24.87
2023-08-11T11:07:00,sdl,25.08
2023-08-11T11:08:00,sdl,25.01
2023-08-11T11:09:00,sdl,25.24
2023-08-11T11:10:00,sdl,24.87
2023-08-11T11:11:00,sdl,26.20
2023-08-11T11:12:00,sdl,26.32
2023-08-11T11:13:00,sdl,26.38
2023-08-11T11:14:00,sdl,26.62
2023-08-11T11:15:00,sdl,26.31
2023-08-11T11:16:00,sdl,26.03
2023-08-11T11:17:00,sdl,26.46
2023-08-11T11:18:00,sdl,26.69
2023-08-11T11:19:00,sdl,26.74
2023-08-11T11:20:00,sdl,26.76
2023-08-11T11:21:00,sdl,26.79
2023-08-11T11:22:00,sdl,26.90
2023-08-11T11:23:00,sdl,26.86
2023-08-11T11:24:00,sdl,26.49
2023-08-11T11:25:00,sdl,26.86
2023-08-11T11:26:00,sdl,26.76
2023-08-11T11:27:00,sdl,25.87
2023-08-11T11:28:00,sdl,25.85
2023-08-11T11:29:00,sdl,25.90
2023-08-11T11:30:00,sdl,26.30
2023-08-11T11:31:00,sdl,25.95
2023-08-11T11:32:00,sdl,25.23
2023-08-11T11:33:00,sdl,25.24
2023-08-11T11:34:00,sdl,25.27
2023-08-11T11:35:00,sdl,25.27
2023-08-11T11:36:00,sdl,25.28
2023-08-11T11:37:00,sdl,25.28
2023-08-11T11:38:00,sdl,25.20
2023-08-11T11:39:00,sdl,25.78
2023-08-11T11:40:00,sdl,25.81
2023-08-11T11:41:00,sdl,26.08
2023-08-11T11:42:00,sdl,25.97
2023-08-11T11:43:00,sdl,25.79
2023-08-11T11:44:00,sdl,25.78
2023-08-11T11:45:00,sdl,25.83
2023-08-11T11:46:00,sdl,25.82
2023-08-11T11:47:00,sdl,26.01
2023-08-11T11:48:00,sdl,21.11
2023-08-11T11:49:00,sdl,21.24
2023-08-11T11:50:00,sdl,23.18
2023-08-11T11:51:00,sdl,23.22
2023-08-11T11:52:00,sdl,23.05
2023-08-11T11:53:00,sdl,23.07
2023-08-11T11:54:00,sdl,21.01
2023-08-11T11:55:00,sdl,22.31
2023-08-11T11:56:00,sdl,22.48
2023-08-11T11:57:00,sdl,21.46
2023-08-11T11:58:00,sdl,22.94
2023-08-11T11:59:00,sdl,23.88
2023-08-11T12:00:00,sdl,23.38
2023-08-11T12:01:00,sdl,22.95
2023-08-11T12:02:00,sdl,22.87
2023-08-11T12:03:00,sdl,23.31
2023-08-11T12:04:00,sdl,23.05
2023-08-11T12:05:00,sdl,21.80
2023-08-11T12:06:00,sdl,22.04
2023-08-11T12:07:00,sdl,22.05
2023-08-11T12:08:00,sdl,22.32
2023-08-11T12:09:00,sdl,21.86
2023-08-11T12:10:00,sdl,19.83
2023-08-11T12:11:00,sdl,19.81
2023-08-11T12:12:00,sdl,18.86
2023-08-11T12:13:00,sdl,18.64
2023-08-11T12:14:00,sdl,19.68
2023-08-11T12:15:00,sdl,18.27
2023-08-11T12:16:00,sdl,18.04
2023-08-11T12:17:00,sdl,18.58
2023-08-11T12:18:00,sdl,18.87
2023-08-11T12:19:00,sdl,18.76
2023-08-11T12:20:00,sdl,18.73
2023-08-11T12:21:00,sdl,19.07
2023-08-11T12:22:00,sdl,20.97
2023-08-11T12:23:00,sdl,20.76
2023-08-11T12:24:00,sdl,20.78
2023-08-11T12:25:00,sdl,21.04
2023-08-11T12:26:00,sdl,21.06
2023-08-11T12:27:00,sdl,21.63
2023-08-11T12:28:00,sdl,21.55
2023-08-11T12:29:00,sdl,20.91
2023-08-11T12:30:00,sdl,20.26
2023-08-11T12:31:00,sdl,20.15
2023-08-11T12:32:00,sdl,20.22
2023-08-11T12:33:00,sdl,20.49
2023-08-11T12:34:00,sdl,19.87
2023-08-11T12:35:00,sdl,21.60
2023-08-11T12:36:00,sdl,20.84
2023-08-11T12:37:00,sdl,20.80
2023-08-11T12:38:00,sdl,18.66
2023-08-11T12:39:00,sdl,17.85
2023-08-11T12:40:00,sdl,19.11
2023-08-11T12:41:00,sdl,18.71
2023-08-11T12:42:00,sdl,17.56
2023-08-11T12:43:00,sdl,17.37
2023-08-11T12:44:00,sdl,17.50
2023-08-11T12:45:00,sdl,17.33
2023-08-11T12:46:00,sdl,16.41
2023-08-11T12:47:00,sdl,16.45
2023-08-11T12:48:00,sdl,16.39
2023-08-11T12:49:00,sdl,16.55
2023-08-11T12:50:00,sdl,16.64
2023-08-11T12:51:00,sdl,16.52
2023-08-11T12:52:00,sdl,16.92
2023-08-11T12:53:00,sdl,17.98
2023-08-11T12:54:00,sdl,18.32
2023-08-11T12:55:00,sdl,18.50
2023-08-11T12:56:00,sdl,18.36
2023-08-11T12:57:00,sdl,18.07
2023-08-11T12:58:00,sdl,20.23
2023-08-11T12:59:00,sdl,20.30
2023-08-11T13:00:00,sdl,20.30
2023-08-11T13:01:00,sdl,20.27
2023-08-11T13:02:00,sdl,19.72
2023-08-11T13:03:00,sdl,19.60
2023-08-11T13:04:00,sdl,18.86
2023-08-11T13:05:00,sdl,18.77
2023-08-11T13:06:00,sdl,18.72
2023-08-11T13:07:00,sdl,18.89
2023-08-11T13:08:00,sdl,18.57
2023-08-11T13:09:00,sdl,19.89
2023-08-11T13:10:00,sdl,20.74
2023-08-11T13:11:00,sdl,20.64
2023-08-11T13:12:00,sdl,20.72
2023-08-11T13:13:00,sdl,20.76
2023-08-11T13:14:00,sdl,19.50
2023-08-11T13:15:00,sdl,19.63
2023-08-11T13:16:00,sdl,19.71
2023-08-11T13:17:00,sdl,19.92
2023-08-11T13:18:00,sdl,20.16
2023-08-11T13:19:00,sdl,19.95
2023-08-11T13:20:00,sdl,19.82